Location: Edemissen
(51.7689°N, 9.8634°E)
Time: 04:50:42
(UTC+00:00)

Cosmos 1869 Rocket - Pass Details

Date: 20 November 2025
Orbit: 598 x 626 km, 82.5° (Epoch: 07 December)

Event Time Altitude Azimuth Distance (km) Brightness Sun altitude
Rises 16:02:44 0° 248° (WSW) 2,843 9.8 -6.2°
Reaches altitude 10° 16:06:28 10° 282° (WNW) 1,945 7.1 -6.7°
Maximum altitude 16:07:57 12° 302° (WNW) 1,847 6.5 -6.9°
Drops below altitude 10° 16:09:27 10° 322° (NW) 1,950 6.3 -7.1°
Sets 16:13:13 0° 356° (N) 2,861 6.8 -7.7°
